Location: Armstrong Village
(14.3346°N, 120.9854°E)
Time: 02:20:21
(UTC+00:00)

ATLAS 5 CENTAUR R/B - Pass Details

Date: 13 January 2026
Orbit: 257 x 11040 km, 20.1° (Epoch: 15 February)

Event Time Altitude Azimuth Distance (km) Brightness Sun altitude
Rises 11:01:05 0° 289° (WNW) 1,850 4.4 -18.1°
Reaches altitude 10° 11:02:44 10° 295° (WNW) 1,020 2.9 -18.4°
Enters shadow 11:03:46 27° 309° (NW) 548 1.1 -18.7°
